Weather History for Iron Mountain, MI

Change the Weather History Date:

Sunday, January 15, 2012

  Actual Average Record
Temperature  
Mean Temperature 16 °F -  
Max Temperature 30 °F 22 °F 36 °F (1949)
Min Temperature 3 °F 0 °F -31 °F (1972)
Degree Days  
Heating Degree Days 48    
Moisture  
Dew Point 13 °F    
Average Humidity 81    
Maximum Humidity 87    
Minimum Humidity 74    
Precipitation  
Precipitation 0.00 in - - ()
Sea Level Pressure  
Sea Level Pressure 30.13 in    
Wind  
Wind Speed 5 mph (SSE)    
Max Wind Speed 22 mph    
Max Gust Speed 29 mph    
Visibility 9 miles    
Events      
Averages and records for this station are not official NWS values.
T = Trace of Precipitation, MM = Missing Value Source: NWS Daily Summary

Daily Weather History Graph

Daily Weather History Graph

Search for Another Location

Airport:

Trip Planner

Search our weather history database for the weather conditions in past years. The results will help you decide how hot, cold, wet, or windy it might be!

Date:

Astronomy

Jan. 15, 2012 Rise Set
Actual Time 7:30 AM CST 4:33 PM CST
Civil Twilight 6:56 AM CST 5:07 PM CST
Nautical Twilight 6:19 AM CST 5:44 PM CST
Astronomical Twilight 5:44 AM CST 6:19 PM CST
Moon No Moon Rise 10:22 AM CST (1/15)
Length of Visible Light 10h 10m
Length of Day
9h 03m
Waning Gibbous, 57% of the Moon is Illuminated
Jan 15
Waning Gibbous
Jan 16
Last Quarter
Jan 23
New
Jan 30
First Quarter
Feb 7
Full

Hourly Weather History & Observations

Time (CST) Temp. Windchill Dew Point Humidity Pressure Visibility Wind Dir Wind Speed Gust Speed Precip Events Conditions
12:54 AM 3.9 °F - -0.0 °F 84% 30.22 in 10.0 mi Calm Calm - N/A   Overcast
1:54 AM 6.1 °F - 1.9 °F 83% 30.22 in 10.0 mi Calm Calm - N/A   Overcast
2:54 AM 6.1 °F - 1.9 °F 83% 30.23 in 10.0 mi Calm Calm - N/A   Mostly Cloudy
3:54 AM 3.0 °F - -0.0 °F 87% 30.23 in 10.0 mi Calm Calm - N/A   Overcast
4:54 AM 7.0 °F - 3.9 °F 87% 30.22 in 10.0 mi Calm Calm - N/A   Overcast
5:54 AM 10.0 °F 1.8 °F 5.0 °F 80% 30.23 in 10.0 mi SSE 4.6 mph - N/A   Overcast
6:11 AM 10.4 °F 2.2 °F 5.0 °F 79% 30.15 in 10.0 mi SE 4.6 mph - N/A   Overcast
6:54 AM 10.9 °F 2.9 °F 6.1 °F 81% 30.24 in 10.0 mi SE 4.6 mph - N/A   Overcast
7:54 AM 12.0 °F 2.7 °F 7.0 °F 80% 30.25 in 10.0 mi SSE 5.8 mph - N/A   Overcast
8:54 AM 12.9 °F 3.8 °F 7.0 °F 77% 30.26 in 10.0 mi SSE 5.8 mph - N/A   Overcast
9:54 AM 14.0 °F 5.1 °F 8.1 °F 77% 30.26 in 7.0 mi SSE 5.8 mph - N/A   Overcast
10:12 AM 14.0 °F 3.9 °F 8.6 °F 79% 30.17 in 8.0 mi SSE 6.9 mph - N/A   Overcast
10:54 AM 15.1 °F 5.2 °F 9.0 °F 77% 30.26 in 8.0 mi SSE 6.9 mph - N/A   Overcast
11:54 AM 17.1 °F 8.7 °F 10.9 °F 77% 30.22 in 8.0 mi SSE 5.8 mph - N/A   Overcast
12:36 PM 17.6 °F 7.3 °F 12.2 °F 79% 30.12 in 8.0 mi SE 8.1 mph - N/A   Overcast
12:54 PM 19.0 °F 8.2 °F 12.9 °F 77% 30.20 in 8.0 mi SSE 9.2 mph - N/A   Mostly Cloudy
1:04 PM 19.4 °F 8.6 °F 12.2 °F 74% 30.11 in 8.0 mi SSE 9.2 mph - N/A   Overcast
1:54 PM 19.9 °F 10.1 °F 14.0 °F 78% 30.18 in 8.0 mi SSE 8.1 mph - N/A   Overcast
2:54 PM 21.0 °F 10.6 °F 15.1 °F 78% 30.15 in 7.0 mi SSE 9.2 mph - N/A   Overcast
3:08 PM 21.2 °F 11.7 °F 15.8 °F 80% 30.06 in 7.0 mi SE 8.1 mph - N/A   Overcast
3:54 PM 21.0 °F 11.4 °F 16.0 °F 81% 30.13 in 6.0 mi SE 8.1 mph - N/A   Haze
4:49 PM 21.2 °F 10.9 °F 17.6 °F 86% 30.03 in 7.0 mi SSE 9.2 mph - N/A   Mostly Cloudy
4:54 PM 21.9 °F 11.7 °F 17.1 °F 82% 30.10 in 8.0 mi SSE 9.2 mph - N/A   Mostly Cloudy
5:28 PM 21.2 °F 11.7 °F 17.6 °F 86% 30.01 in 9.0 mi SSE 8.1 mph - N/A   Scattered Clouds
5:54 PM 23.0 °F 13.1 °F 17.1 °F 78% 30.07 in 9.0 mi SSE 9.2 mph - N/A   Partly Cloudy
6:32 PM 23.0 °F 12.4 °F 19.4 °F 86% 29.98 in 9.0 mi SE 10.4 mph - N/A   Mostly Cloudy
6:54 PM 24.1 °F 14.4 °F 19.9 °F 84% 30.05 in 9.0 mi SSE 9.2 mph - N/A   Overcast
7:54 PM 27.0 °F 15.2 °F 23.0 °F 85% 30.03 in 9.0 mi SSE 15.0 mph 23.0 mph N/A   Overcast
8:54 PM 28.0 °F 17.0 °F 24.1 °F 85% 30.01 in 8.0 mi SSE 13.8 mph 23.0 mph N/A   Overcast
9:54 PM 30.0 °F 18.3 °F 25.0 °F 82% 29.99 in 9.0 mi South 17.3 mph 26.5 mph N/A   Overcast
10:33 PM 30.2 °F 18.9 °F 24.8 °F 80% 29.93 in 10.0 mi South 16.1 mph - N/A   Overcast
10:54 PM 30.0 °F 16.9 °F 25.0 °F 82% 29.97 in 10.0 mi South 21.9 mph 28.8 mph N/A   Overcast
11:54 PM 30.0 °F 18.7 °F 24.1 °F 79% 29.92 in 10.0 mi South 16.1 mph 25.3 mph N/A   Overcast